Location: Madrid
(40.4167°N, 3.7036°W)
Time: 14:17:04
(UTC+00:00)

ISS - Pass Details

Date: 12 July 2024
Orbit: 410 x 424 km, 51.6° (Epoch: 14 July)

Event Time Altitude Azimuth Distance (km) Brightness Sun altitude
Rises 22:35:04 0° 292° (WNW) 2,339 0.8 -23.1°
Reaches altitude 10° 22:38:03 10° 322° (NW) 1,479 0.1 -23.4°
Maximum altitude 22:39:42 13° 351° (N) 1,308 -0.3 -23.5°
Drops below altitude 10° 22:41:21 10° 21° (NNE) 1,481 -0.4 -23.6°
Sets 22:44:21 0° 51° (NE) 2,347 0.2 -23.9°
